CW4611 Weather Reports


time (UTC)temp
F
wind
direction
speed
knots
gust
knots
rain 1hr
in
rain 24hr
in
rain mn
in
humidity
%
barometer
mb
20260506134605 31 13 0.0 1.7 0.00 0.68 0.02 82 1023.7
20260506134104 31 13 0.9 2.6 0.00 0.68 0.02 82 1023.5
20260506133605 31 12 0.9 2.6 0.00 0.68 0.02 82 1023.5
20260506133104 31 13 0.9 2.6 0.00 0.68 0.02 83 1023.4
20260506131604 30 13 0.9 1.7 0.00 0.68 0.02 88 1023.1
20260506131104 29 14 0.9 1.7 0.00 0.69 0.02 88 1023.0
20260506130604 28 14 0.0 0.0 0.00 0.69 0.02 87 1022.9
20260506130105 28 14 0.0 1.7 0.00 0.70 0.02 87 1022.9
20260506124105 29 15 0.0 0.9 0.00 0.72 0.02 86 1022.2
20260506123605 29 15 0.9 2.6 0.00 0.72 0.02 86 1022.1
20260506123105 29 13 1.7 2.6 0.00 0.73 0.02 85 1022.0
20260506121605 30 13 0.0 0.9 0.00 0.76 0.02 86 1021.9
20260506121105 30 13 1.7 2.6 0.00 0.79 0.02 86 1021.9
20260506120605 30 15 0.0 1.7 0.00 0.81 0.02 85 1021.8
20260506120104 30 14 0.9 2.6 0.00 0.83 0.02 84 1021.8
20260506114605 31 9 0.9 1.7 0.00 0.93 0.02 84 1021.6
20260506113605 31 10 0.9 2.6 0.00 0.98 0.02 83 1021.4
20260506113104 31 11 1.7 2.6 0.00 0.99 0.02 85 1021.5
20260506111605 31 11 1.7 5.2 0.00 1.06 0.02 82 1021.4
20260506111104 31 10 1.7 4.3 0.00 1.06 0.02 81 1021.5
20260506110604 31 11 1.7 5.2 0.00 1.07 0.02 83 1021.3
20260506110105 31 11 1.7 5.2 0.00 1.07 0.02 84 1021.2
20260506104604 31 9 1.7 2.6 0.00 1.07 0.02 86 1021.6
20260506104104 31 11 0.9 4.3 0.00 1.07 0.02 86 1021.5
20260506103604 31 9 2.6 2.6 0.00 1.07 0.02 88 1021.6
20260506103104 31 9 2.6 5.2 0.00 1.07 0.02 88 1021.6
20260506101605 31 13 0.0 2.6 0.00 1.07 0.02 88 1021.6
20260506101105 31 13 1.7 2.6 0.00 1.07 0.02 87 1021.4
20260506100604 32 13 0.9 2.6 0.00 1.07 0.02 88 1021.3
20260506100105 32 12 0.9 6.1 0.00 1.07 0.02 88 1021.3
20260506094605 32 12 0.9 4.3 0.00 1.07 0.02 82 1020.8
20260506094104 32 9 1.7 8.7 0.00 1.07 0.02 83 1020.4
20260506093605 32 9 7.8 12.2 0.00 1.07 0.02 81 1020.0
20260506093104 32 10 6.1 10.4 0.00 1.07 0.02 81 1019.8
20260506091604 33 12 0.0 2.6 0.00 1.07 0.02 83 1019.7
20260506091105 34 10 0.9 2.6 0.00 1.07 0.02 84 1019.7
20260506090605 34 11 0.9 2.6 0.00 1.07 0.02 85 1019.5
20260506090104 34 9 1.7 5.2 0.00 1.07 0.02 82 1019.4
20260506084604 34 11 0.9 2.6 0.00 1.07 0.02 85 1019.3
20260506083604 33 9 2.6 7.8 0.01 1.07 0.02 84 1019.1
20260506083105 33 10 4.3 10.4 0.01 1.07 0.02 86 1018.9
20260506080605 34 13 0.9 4.3 0.02 1.07 0.02 93 1018.5
20260506080104 34 11 0.0 2.6 0.02 1.07 0.02 93 1018.3
20260506071605 36 5 0.0 0.0 0.00 1.05 0.00 90 1017.5
20260506071104 36 5 0.0 0.9 0.00 1.05 0.00 90 1017.5
20260506070604 36 5 0.9 1.7 0.00 1.05 0.00 91 1017.6
20260506070104 36 15 0.0 0.0 0.00 1.05 0.00 91 1017.7
20260506061107 35 6 1.7 2.6 0.04 1.05 0.00 91 1017.4
20260506060605 35 9 0.9 2.6 0.04 1.05 0.00 92 1017.3
20260506060105 35 15 0.0 4.3 0.04 1.05 0.00 92 1017.3
20260506050104 35 9 0.9 5.2 0.00 1.01 1.01 89 1015.8
20260506044605 35 9 2.6 5.2 0.00 1.01 1.01 88 1016.1
20260506043604 35 10 4.3 8.7 0.00 1.01 1.01 89 1016.3
20260506041604 35 9 1.7 2.6 0.00 1.01 1.01 90 1016.1
20260506041104 35 9 1.7 2.6 0.01 1.01 1.01 90 1016.2
20260506040604 35 9 1.7 4.3 0.01 1.01 1.01 90 1016.3
20260506034605 35 9 1.7 2.6 0.05 1.01 1.01 89 1016.1
20260506034104 35 9 0.0 0.0 0.07 1.01 1.01 89 1016.1
20260506033104 36 9 0.9 2.6 0.12 1.01 1.01 89 1015.9
20260506031605 36 9 0.9 2.6 0.14 1.01 1.01 89 1015.8
20260506031104 36 9 2.6 4.3 0.13 1.00 1.00 90 1015.8
20260506030604 36 9 1.7 2.6 0.13 1.00 1.00 89 1015.6
20260506024604 36 8 0.9 2.6 0.09 0.96 0.96 86 1015.2
20260506024104 36 11 2.6 4.3 0.07 0.94 0.94 85 1015.1
20260506023604 37 9 1.7 2.6 0.04 0.91 0.91 84 1015.0
20260506021604 40 11 4.3 11.3 0.00 0.87 0.87 77 1014.5
20260506021104 41 10 5.2 12.2 0.00 0.87 0.87 73 1014.4
20260506020604 42 10 4.3 7.8 0.00 0.87 0.87 73 1014.4
20260506020104 42 9 6.1 10.4 0.00 0.87 0.87 78 1014.3
20260506014604 43 10 3.5 5.2 0.00 0.87 0.87 76 1014.0
20260506014104 44 9 2.6 5.2 0.00 0.87 0.87 80 1013.9
20260506013604 44 11 2.6 7.0 0.00 0.87 0.87 78 1013.7
20260506013104 44 11 4.3 8.7 0.00 0.87 0.87 76 1013.8
20260506011603 44 10 0.0 0.9 0.00 0.87 0.87 76 1013.7
20260506011105 44 10 0.9 1.7 0.00 0.87 0.87 77 1013.7
20260506010604 44 9 0.0 0.9 0.00 0.87 0.87 78 1013.7
20260506010104 44 9 0.0 0.9 0.00 0.87 0.87 77 1013.6
20260506004604 44 7 0.0 1.7 0.00 0.87 0.87 77 1013.6
20260506004104 44 14 0.9 1.7 0.00 0.87 0.87 78 1013.7
20260506003604 44 15 0.0 1.7 0.00 0.87 0.87 79 1013.7
20260506001604 44 13 0.9 2.6 0.00 0.87 0.87 81 1013.8
20260506001104 43 13 0.9 2.6 0.00 0.87 0.87 81 1013.8
20260506000604 44 14 0.9 4.3 0.00 0.87 0.87 81 1013.7
20260506000104 44 13 2.6 2.6 0.00 0.87 0.87 83 1013.7
20260505234104 42 13 0.9 2.6 0.00 0.87 0.87 82 1013.7
20260505233604 42 15 0.9 0.9 0.00 0.87 0.87 84 1013.8
20260505233104 42 15 1.7 2.6 0.00 0.87 0.87 84 1013.9
20260505231104 42 12 0.9 4.3 0.00 0.87 0.87 84 1014.0
20260505230604 42 13 1.7 2.6 0.00 0.87 0.87 83 1014.0
20260505230104 42 13 1.7 4.3 0.00 0.87 0.87 84 1014.0
20260505224604 41 13 1.7 4.3 0.00 0.87 0.87 85 1014.1
20260505224104 41 14 1.7 2.6 0.00 0.87 0.87 85 1014.1
20260505223604 41 13 1.7 2.6 0.00 0.87 0.87 87 1014.1
20260505221605 41 13 1.7 4.3 0.01 0.87 0.87 88 1014.1
20260505221105 41 12 0.9 2.6 0.02 0.87 0.87 92 1014.0
20260505220605 40 13 1.7 2.6 0.03 0.87 0.87 90 1014.1
20260505220105 40 14 0.9 5.2 0.03 0.87 0.87 91 1014.0
20260505214605 39 13 1.7 2.6 0.08 0.87 0.87 91 1014.2
20260505214104 39 13 0.9 2.6 0.09 0.87 0.87 89 1014.2
20260505213605 39 14 0.0 2.6 0.10 0.87 0.87 89 1014.2
20260505213105 39 13 1.7 4.3 0.11 0.87 0.87 89 1014.3
20260505211605 39 13 0.9 4.3 0.11 0.86 0.86 90 1014.3
20260505210605 39 12 1.7 4.3 0.09 0.84 0.84 90 1014.3
20260505210105 39 13 0.9 4.3 0.09 0.84 0.84 90 1014.4
20260505204605 39 13 1.7 4.3 0.04 0.79 0.79 91 1014.4
20260505204105 39 13 0.0 5.2 0.03 0.78 0.78 91 1014.3
20260505203605 38 13 0.0 2.6 0.02 0.77 0.77 91 1014.3
20260505203105 38 14 0.9 4.3 0.01 0.76 0.76 91 1014.2
20260505201605 38 14 0.9 2.6 0.00 0.75 0.75 91 1013.9
20260505201105 38 13 1.7 2.6 0.00 0.75 0.75 92 1013.9
20260505200605 38 11 0.9 1.7 0.00 0.75 0.75 91 1013.8
20260505200105 38 13 0.9 2.6 0.00 0.75 0.75 90 1013.7
20260505194605 37 13 0.9 2.6 0.02 0.75 0.75 91 1013.6
20260505193605 37 13 1.7 2.6 0.03 0.75 0.75 91 1013.6
20260505193105 36 13 1.7 2.6 0.03 0.75 0.75 91 1013.6
20260505191605 36 13 0.0 0.0 0.05 0.75 0.75 90 1013.5
20260505191105 36 13 0.0 0.0 0.06 0.75 0.75 90 1013.4
20260505190604 36 13 0.0 0.9 0.07 0.75 0.75 90 1013.4
20260505190105 36 13 0.0 0.9 0.07 0.75 0.75 90 1013.3
20260505184605 36 13 0.0 0.9 0.06 0.73 0.73 90 1013.6
20260505184104 36 13 0.0 0.0 0.07 0.73 0.73 90 1013.5
20260505183604 36 13 0.0 1.7 0.06 0.72 0.72 90 1013.6
20260505183105 36 13 0.9 2.6 0.06 0.72 0.72 90 1013.5
20260505181605 36 13 0.9 2.6 0.04 0.70 0.70 92 1013.2
20260505181105 36 13 0.9 2.6 0.03 0.69 0.69 92 1013.1
20260505180605 36 13 0.9 2.6 0.02 0.68 0.68 92 1012.9
20260505174605 35 13 0.9 1.7 0.03 0.67 0.67 92 1012.6
20260505174104 35 13 0.9 1.7 0.03 0.66 0.66 91 1012.5
20260505173605 35 13 1.7 2.6 0.03 0.66 0.66 91 1012.5
20260505173105 35 12 0.9 2.6 0.04 0.66 0.66 91 1012.4
20260505171605 35 12 0.0 0.0 0.07 0.66 0.66 90 1012.1
20260505171105 35 12 0.0 0.0 0.09 0.66 0.66 89 1012.0
20260505170605 35 12 0.0 0.0 0.10 0.66 0.66 89 1012.0
20260505170105 35 12 0.0 2.6 0.10 0.66 0.66 89 1011.8
20260505164605 36 13 0.0 1.7 0.08 0.64 0.64 88 1011.7
20260505164105 36 13 0.9 1.7 0.07 0.63 0.63 88 1011.7
20260505163104 36 14 0.9 1.7 0.06 0.62 0.62 88 1011.7
20260505161105 36 12 0.0 0.0 0.02 0.57 0.57 89 1011.3
20260505160605 36 12 0.0 1.7 0.01 0.56 0.56 89 1011.3
20260505160104 36 12 0.0 0.9 0.03 0.56 0.56 89 1011.2
20260505153104 35 12 0.0 1.7 0.15 0.56 0.56 90 1011.0
20260505151604 35 12 0.9 1.7 0.16 0.56 0.56 89 1010.9
20260505151105 35 11 0.9 1.7 0.16 0.55 0.55 89 1010.8
20260505150604 35 9 0.0 0.0 0.16 0.55 0.55 89 1010.7
20260505140104 35 9 0.0 1.7 0.02 0.39 0.39 90 1010.8